Time,TemperatureF,DewpointF,PressureIn,WindDirection,WindDirectionDegrees,WindSpeedMPH,WindSpeedGustMPH,Humidity,HourlyPrecipIn,Conditions,Clouds,dailyrainin,SoftwareType,DateUTC
2013-01-23 00:03:00,-1.0,-14.0,29.93,NW,323,1.0,3.0,54,0.00,,,0.00,,2013-01-23 05:03:00,
2013-01-23 00:12:00,-1.0,-14.0,29.93,NW,323,1.0,3.0,54,0.00,,,0.00,,2013-01-23 05:12:00,
2013-01-23 00:22:00,-2.0,-14.0,29.93,West,263,0.0,3.0,56,0.00,,,0.00,,2013-01-23 05:22:00,
2013-01-23 00:33:00,-3.0,-14.0,29.92,NW,320,0.0,1.0,57,0.00,,,0.00,,2013-01-23 05:33:00,
2013-01-23 00:43:00,-3.0,-14.0,29.92,NW,320,0.0,1.0,57,0.00,,,0.00,,2013-01-23 05:43:00,
2013-01-23 00:53:00,-4.0,-15.0,29.92,West,271,1.0,3.0,59,0.00,,,0.00,,2013-01-23 05:53:00,
2013-01-23 01:03:00,-4.0,-15.0,29.92,SW,217,3.0,5.0,59,0.00,,,0.00,,2013-01-23 06:03:00,
2013-01-23 01:12:00,-4.0,-15.0,29.92,SW,217,3.0,5.0,59,0.00,,,0.00,,2013-01-23 06:12:00,
2013-01-23 01:22:00,-2.0,-14.0,29.93,West,263,4.0,11.0,56,0.00,,,0.00,,2013-01-23 06:22:00,
2013-01-23 01:32:00,-3.0,-15.0,29.93,West,266,3.0,7.0,56,0.00,,,0.00,,2013-01-23 06:32:00,
2013-01-23 01:43:00,-3.0,-15.0,29.93,West,266,3.0,7.0,56,0.00,,,0.00,,2013-01-23 06:43:00,
2013-01-23 01:53:00,-3.0,-15.0,29.93,WNW,288,3.0,10.0,56,0.00,,,0.00,,2013-01-23 06:53:00,
2013-01-23 02:02:00,-3.0,-15.0,29.93,WSW,254,3.0,10.0,56,0.00,,,0.00,,2013-01-23 07:02:00,
2013-01-23 02:13:00,-3.0,-15.0,29.93,WSW,254,3.0,10.0,56,0.00,,,0.00,,2013-01-23 07:13:00,
2013-01-23 02:23:00,-3.0,-14.0,29.93,NW,304,1.0,10.0,57,0.00,,,0.00,,2013-01-23 07:23:00,
2013-01-23 02:33:00,-3.0,-15.0,29.94,NW,319,7.0,10.0,56,0.00,,,0.00,,2013-01-23 07:33:00,
2013-01-23 02:42:00,-3.0,-15.0,29.94,NW,319,7.0,10.0,56,0.00,,,0.00,,2013-01-23 07:42:00,
2013-01-23 02:53:00,-4.0,-16.0,29.94,WNW,296,5.0,11.0,56,0.00,,,0.00,,2013-01-23 07:53:00,
2013-01-23 03:02:00,-4.0,-16.0,29.94,WNW,285,2.0,10.0,56,0.00,,,0.00,,2013-01-23 08:02:00,
2013-01-23 03:13:00,-4.0,-16.0,29.94,WNW,285,2.0,10.0,56,0.00,,,0.00,,2013-01-23 08:13:00,
2013-01-23 03:23:00,-4.0,-15.0,29.94,NW,309,6.0,14.0,57,0.00,,,0.00,,2013-01-23 08:23:00,
2013-01-23 03:33:00,-5.0,-16.0,29.93,WNW,290,4.0,9.0,59,0.00,,,0.00,,2013-01-23 08:33:00,
2013-01-23 03:43:00,-5.0,-16.0,29.93,WNW,290,4.0,9.0,59,0.00,,,0.00,,2013-01-23 08:43:00,
2013-01-23 03:53:00,-5.0,-15.0,29.93,NNW,334,11.0,13.0,60,0.00,,,0.00,,2013-01-23 08:53:00,
2013-01-23 04:03:00,-5.0,-16.0,29.93,NW,311,5.0,12.0,59,0.00,,,0.00,,2013-01-23 09:03:00,
2013-01-23 04:12:00,-5.0,-16.0,29.93,NW,311,5.0,12.0,59,0.00,,,0.00,,2013-01-23 09:12:00,
2013-01-23 04:22:00,-6.0,-17.0,29.93,WNW,295,7.0,13.0,59,0.00,,,0.00,,2013-01-23 09:22:00,
2013-01-23 04:33:00,-6.0,-17.0,29.93,NW,305,5.0,9.0,59,0.00,,,0.00,,2013-01-23 09:33:00,
2013-01-23 04:43:00,-6.0,-17.0,29.93,NW,305,5.0,9.0,59,0.00,,,0.00,,2013-01-23 09:43:00,
2013-01-23 04:53:00,-7.0,-18.0,29.93,NW,305,4.0,12.0,59,0.00,,,0.00,,2013-01-23 09:53:00,
2013-01-23 05:03:00,-7.0,-18.0,29.94,NW,310,1.0,13.0,59,0.00,,,0.00,,2013-01-23 10:03:00,
2013-01-23 05:12:00,-7.0,-18.0,29.94,NW,310,1.0,13.0,59,0.00,,,0.00,,2013-01-23 10:12:00,
2013-01-23 05:23:00,-7.0,-18.0,29.95,NW,304,6.0,14.0,58,0.00,,,0.00,,2013-01-23 10:23:00,
2013-01-23 05:33:00,-8.0,-19.0,29.95,WNW,293,4.0,10.0,57,0.00,,,0.00,,2013-01-23 10:33:00,
2013-01-23 05:43:00,-8.0,-19.0,29.95,WNW,293,4.0,10.0,57,0.00,,,0.00,,2013-01-23 10:43:00,
2013-01-23 05:53:00,-8.0,-19.0,29.96,NW,308,6.0,10.0,57,0.00,,,0.00,,2013-01-23 10:53:00,
2013-01-23 06:03:00,-8.0,-19.0,29.96,WNW,297,2.0,6.0,58,0.00,,,0.00,,2013-01-23 11:03:00,
2013-01-23 06:12:00,-8.0,-19.0,29.96,WNW,297,2.0,6.0,58,0.00,,,0.00,,2013-01-23 11:12:00,
2013-01-23 06:23:00,-8.0,-18.0,29.97,NW,304,2.0,8.0,59,0.00,,,0.00,,2013-01-23 11:23:00,
2013-01-23 06:33:00,-9.0,-20.0,29.97,NW,311,2.0,5.0,58,0.00,,,0.00,,2013-01-23 11:33:00,
2013-01-23 06:43:00,-9.0,-20.0,29.97,NW,311,2.0,5.0,58,0.00,,,0.00,,2013-01-23 11:43:00,
2013-01-23 06:53:00,-9.0,-20.0,29.97,WNW,299,3.0,9.0,58,0.00,,,0.00,,2013-01-23 11:53:00,
2013-01-23 07:03:00,-9.0,-20.0,29.98,NW,313,5.0,12.0,58,0.00,,,0.00,,2013-01-23 12:03:00,
2013-01-23 07:13:00,-9.0,-20.0,29.98,NW,313,5.0,12.0,58,0.00,,,0.00,,2013-01-23 12:13:00,
2013-01-23 07:22:00,-9.0,-20.0,29.98,WNW,302,7.0,12.0,58,0.00,,,0.00,,2013-01-23 12:22:00,
2013-01-23 07:33:00,-9.0,-20.0,29.97,WNW,288,5.0,14.0,57,0.00,,,0.00,,2013-01-23 12:33:00,
2013-01-23 07:43:00,-9.0,-20.0,29.97,WNW,288,5.0,14.0,57,0.00,,,0.00,,2013-01-23 12:43:00,
2013-01-23 07:53:00,-9.0,-20.0,29.97,NW,314,3.0,14.0,57,0.00,,,0.00,,2013-01-23 12:53:00,
2013-01-23 08:04:00,-9.0,-20.0,29.97,NW,304,5.0,11.0,56,0.00,,,0.00,,2013-01-23 13:04:00,
2013-01-23 08:13:00,-9.0,-20.0,29.97,NW,304,5.0,11.0,56,0.00,,,0.00,,2013-01-23 13:13:00,
2013-01-23 08:23:00,-9.0,-21.0,29.98,WNW,292,8.0,13.0,55,0.00,,,0.00,,2013-01-23 13:23:00,
2013-01-23 08:33:00,-9.0,-21.0,29.98,WNW,292,8.0,13.0,55,0.00,,,0.00,,2013-01-23 13:33:00,
2013-01-23 08:42:00,-9.0,-21.0,29.98,WNW,292,8.0,13.0,55,0.00,,,0.00,,2013-01-23 13:42:00,
2013-01-23 08:53:00,-8.0,-21.0,29.98,NW,311,10.0,14.0,52,0.00,,,0.00,,2013-01-23 13:53:00,
2013-01-23 09:03:00,-7.0,-20.0,29.99,West,266,2.0,15.0,52,0.00,,,0.00,,2013-01-23 14:03:00,
2013-01-23 09:12:00,-7.0,-20.0,29.99,West,266,2.0,15.0,52,0.00,,,0.00,,2013-01-23 14:12:00,
2013-01-23 09:23:00,-7.0,-20.0,29.99,West,281,3.0,15.0,51,0.00,,,0.00,,2013-01-23 14:23:00,
2013-01-23 09:33:00,-6.0,-20.0,29.99,West,269,9.0,13.0,50,0.00,,,0.00,,2013-01-23 14:33:00,
2013-01-23 09:43:00,-6.0,-20.0,29.99,West,269,9.0,13.0,50,0.00,,,0.00,,2013-01-23 14:43:00,
2013-01-23 09:53:00,-6.0,-20.0,29.99,NW,319,10.0,14.0,49,0.00,,,0.00,,2013-01-23 14:53:00,
2013-01-23 10:03:00,-6.0,-21.0,29.99,WNW,298,10.0,16.0,48,0.00,,,0.00,,2013-01-23 15:03:00,
2013-01-23 10:13:00,-6.0,-21.0,29.99,WNW,298,10.0,16.0,48,0.00,,,0.00,,2013-01-23 15:13:00,
2013-01-23 10:23:00,-5.0,-20.0,29.99,NW,323,5.0,17.0,48,0.00,,,0.00,,2013-01-23 15:23:00,
2013-01-23 10:33:00,-5.0,-20.0,30.00,NW,311,4.0,12.0,48,0.00,,,0.00,,2013-01-23 15:33:00,
2013-01-23 10:43:00,-5.0,-20.0,30.00,NW,311,4.0,12.0,48,0.00,,,0.00,,2013-01-23 15:43:00,
2013-01-23 10:53:00,-4.0,-19.0,30.00,WNW,294,15.0,15.0,46,0.00,,,0.00,,2013-01-23 15:53:00,
2013-01-23 11:03:00,-4.0,-19.0,29.98,NW,313,4.0,12.0,46,0.00,,,0.00,,2013-01-23 16:03:00,
2013-01-23 11:12:00,-4.0,-19.0,29.98,NW,313,4.0,12.0,46,0.00,,,0.00,,2013-01-23 16:12:00,
2013-01-23 11:23:00,-3.0,-19.0,29.98,WSW,257,3.0,16.0,44,0.00,,,0.00,,2013-01-23 16:23:00,
2013-01-23 11:33:00,-2.0,-19.0,29.98,NW,318,3.0,11.0,43,0.00,,,0.00,,2013-01-23 16:33:00,
2013-01-23 11:42:00,-2.0,-19.0,29.98,NW,318,3.0,11.0,43,0.00,,,0.00,,2013-01-23 16:42:00,
2013-01-23 11:53:00,-2.0,-19.0,29.97,NW,305,4.0,13.0,43,0.00,,,0.00,,2013-01-23 16:53:00,
2013-01-23 12:03:00,-2.0,-19.0,29.97,North,359,8.0,11.0,42,0.00,,,0.00,,2013-01-23 17:03:00,
2013-01-23 12:12:00,-2.0,-19.0,29.97,North,359,8.0,11.0,42,0.00,,,0.00,,2013-01-23 17:12:00,
2013-01-23 12:23:00,-2.0,-20.0,29.96,NNW,329,8.0,17.0,41,0.00,,,0.00,,2013-01-23 17:23:00,
2013-01-23 12:33:00,-2.0,-20.0,29.95,WNW,297,7.0,17.0,41,0.00,,,0.00,,2013-01-23 17:33:00,
2013-01-23 12:43:00,-2.0,-20.0,29.95,WNW,297,7.0,17.0,41,0.00,,,0.00,,2013-01-23 17:43:00,
2013-01-23 12:53:00,-2.0,-21.0,29.96,WNW,300,8.0,17.0,39,0.00,,,0.00,,2013-01-23 17:53:00,
2013-01-23 13:03:00,-2.0,-21.0,29.95,WNW,300,4.0,14.0,39,0.00,,,0.00,,2013-01-23 18:03:00,
2013-01-23 13:12:00,-2.0,-21.0,29.95,WNW,300,4.0,14.0,39,0.00,,,0.00,,2013-01-23 18:12:00,
2013-01-23 13:23:00,-2.0,-21.0,29.95,WNW,288,11.0,19.0,39,0.00,,,0.00,,2013-01-23 18:23:00,
2013-01-23 13:33:00,-2.0,-21.0,29.95,WNW,288,11.0,19.0,39,0.00,,,0.00,,2013-01-23 18:33:00,
2013-01-23 13:43:00,-2.0,-20.0,29.94,NW,311,7.0,20.0,40,0.00,,,0.00,,2013-01-23 18:43:00,
2013-01-23 13:53:00,-1.0,-20.0,29.94,North,360,5.0,20.0,39,0.00,,,0.00,,2013-01-23 18:53:00,
2013-01-23 14:03:00,-1.0,-20.0,29.95,NW,305,8.0,19.0,39,0.00,,,0.00,,2013-01-23 19:03:00,
2013-01-23 14:13:00,-1.0,-20.0,29.95,NW,305,8.0,19.0,39,0.00,,,0.00,,2013-01-23 19:13:00,
2013-01-23 14:23:00,-1.0,-19.0,29.96,West,269,3.0,21.0,40,0.00,,,0.00,,2013-01-23 19:23:00,
2013-01-23 14:33:00,-1.0,-19.0,29.96,WNW,293,5.0,16.0,40,0.00,,,0.00,,2013-01-23 19:33:00,
2013-01-23 14:43:00,-1.0,-19.0,29.96,WNW,293,5.0,16.0,40,0.00,,,0.00,,2013-01-23 19:43:00,
2013-01-23 14:53:00,-1.0,-19.0,29.96,NW,304,15.0,20.0,41,0.00,,,0.00,,2013-01-23 19:53:00,
2013-01-23 15:03:00,-1.0,-19.0,29.96,WNW,288,2.0,14.0,41,0.00,,,0.00,,2013-01-23 20:03:00,
2013-01-23 15:13:00,-1.0,-19.0,29.96,WNW,288,2.0,14.0,41,0.00,,,0.00,,2013-01-23 20:13:00,
2013-01-23 15:23:00,-2.0,-19.0,29.96,West,281,8.0,15.0,42,0.00,,,0.00,,2013-01-23 20:23:00,
2013-01-23 15:33:00,-2.0,-19.0,29.97,WNW,301,9.0,13.0,42,0.00,,,0.00,,2013-01-23 20:33:00,
2013-01-23 15:43:00,-2.0,-19.0,29.97,WNW,301,9.0,13.0,42,0.00,,,0.00,,2013-01-23 20:43:00,
2013-01-23 15:54:00,-2.0,-19.0,29.96,NW,309,3.0,13.0,43,0.00,,,0.00,,2013-01-23 20:54:00,
2013-01-23 16:03:00,-3.0,-19.0,29.97,SW,224,3.0,8.0,44,0.00,,,0.00,,2013-01-23 21:03:00,
2013-01-23 16:12:00,-3.0,-19.0,29.97,SW,224,3.0,8.0,44,0.00,,,0.00,,2013-01-23 21:12:00,
2013-01-23 16:23:00,-4.0,-20.0,29.96,NW,305,4.0,11.0,45,0.00,,,0.00,,2013-01-23 21:23:00,
2013-01-23 16:33:00,-4.0,-19.0,29.97,West,270,2.0,15.0,47,0.00,,,0.00,,2013-01-23 21:33:00,
2013-01-23 16:43:00,-4.0,-19.0,29.97,West,270,2.0,15.0,47,0.00,,,0.00,,2013-01-23 21:43:00,
2013-01-23 16:53:00,-5.0,-20.0,29.97,West,269,3.0,15.0,48,0.00,,,0.00,,2013-01-23 21:53:00,
2013-01-23 17:03:00,-5.0,-19.0,29.98,West,271,8.0,13.0,49,0.00,,,0.00,,2013-01-23 22:03:00,
2013-01-23 17:12:00,-5.0,-19.0,29.98,West,271,8.0,13.0,49,0.00,,,0.00,,2013-01-23 22:12:00,
2013-01-23 17:23:00,-6.0,-20.0,29.98,WNW,295,5.0,13.0,49,0.00,,,0.00,,2013-01-23 22:23:00,
2013-01-23 17:33:00,-6.0,-20.0,29.98,WNW,298,2.0,10.0,50,0.00,,,0.00,,2013-01-23 22:33:00,
2013-01-23 17:42:00,-6.0,-20.0,29.98,WNW,298,2.0,10.0,50,0.00,,,0.00,,2013-01-23 22:42:00,
2013-01-23 17:53:00,-6.0,-19.0,29.98,WNW,298,1.0,12.0,51,0.00,,,0.00,,2013-01-23 22:53:00,
2013-01-23 18:03:00,-6.0,-19.0,29.97,West,272,5.0,11.0,51,0.00,,,0.00,,2013-01-23 23:03:00,
2013-01-23 18:13:00,-6.0,-19.0,29.97,West,272,5.0,11.0,51,0.00,,,0.00,,2013-01-23 23:13:00,
2013-01-23 18:23:00,-6.0,-19.0,29.97,WNW,300,7.0,11.0,52,0.00,,,0.00,,2013-01-23 23:23:00,
2013-01-23 18:33:00,-7.0,-20.0,29.97,WSW,253,5.0,10.0,52,0.00,,,0.00,,2013-01-23 23:33:00,
2013-01-23 18:43:00,-7.0,-20.0,29.97,WSW,253,5.0,10.0,52,0.00,,,0.00,,2013-01-23 23:43:00,
2013-01-23 18:53:00,-7.0,-20.0,29.98,WNW,302,3.0,10.0,52,0.00,,,0.00,,2013-01-23 23:53:00,
2013-01-23 19:03:00,-7.0,-20.0,29.98,NNW,332,5.0,8.0,52,0.00,,,0.00,,2013-01-24 00:03:00,
2013-01-23 19:12:00,-7.0,-20.0,29.98,NNW,332,5.0,8.0,52,0.00,,,0.00,,2013-01-24 00:12:00,
2013-01-23 19:22:00,-7.0,-20.0,29.98,NW,316,7.0,9.0,53,0.00,,,0.00,,2013-01-24 00:22:00,
2013-01-23 19:32:00,-7.0,-20.0,29.99,NW,323,1.0,4.0,53,0.00,,,0.00,,2013-01-24 00:32:00,
2013-01-23 19:43:00,-7.0,-20.0,29.99,NW,323,1.0,4.0,53,0.00,,,0.00,,2013-01-24 00:43:00,
2013-01-23 19:53:00,-8.0,-20.0,29.98,WNW,290,3.0,9.0,54,0.00,,,0.00,,2013-01-24 00:53:00,
2013-01-23 20:03:00,-8.0,-20.0,29.98,WNW,283,3.0,10.0,54,0.00,,,0.00,,2013-01-24 01:03:00,
2013-01-23 20:12:00,-8.0,-20.0,29.98,WNW,283,3.0,10.0,54,0.00,,,0.00,,2013-01-24 01:12:00,
2013-01-23 20:23:00,-8.0,-20.0,29.98,NW,322,3.0,11.0,54,0.00,,,0.00,,2013-01-24 01:23:00,
2013-01-23 20:33:00,-8.0,-20.0,29.98,NW,323,3.0,7.0,54,0.00,,,0.00,,2013-01-24 01:33:00,
2013-01-23 20:43:00,-8.0,-20.0,29.98,NW,323,3.0,7.0,54,0.00,,,0.00,,2013-01-24 01:43:00,
2013-01-23 20:53:00,-8.0,-20.0,29.99,NNW,338,3.0,10.0,54,0.00,,,0.00,,2013-01-24 01:53:00,
2013-01-23 21:02:00,-8.0,-20.0,29.99,WNW,295,3.0,12.0,54,0.00,,,0.00,,2013-01-24 02:02:00,
2013-01-23 21:12:00,-8.0,-20.0,29.99,WNW,295,3.0,12.0,54,0.00,,,0.00,,2013-01-24 02:12:00,
2013-01-23 21:22:00,-8.0,-20.0,29.99,NNW,345,2.0,12.0,55,0.00,,,0.00,,2013-01-24 02:22:00,
2013-01-23 21:33:00,-8.0,-20.0,29.98,WNW,290,3.0,9.0,55,0.00,,,0.00,,2013-01-24 02:33:00,
2013-01-23 21:42:00,-8.0,-20.0,29.98,WNW,290,3.0,9.0,55,0.00,,,0.00,,2013-01-24 02:42:00,
2013-01-23 21:52:00,-8.0,-20.0,29.98,WNW,290,3.0,9.0,55,0.00,,,0.00,,2013-01-24 02:52:00,
2013-01-23 22:03:00,-9.0,-20.0,29.98,NW,316,3.0,8.0,56,0.00,,,0.00,,2013-01-24 03:03:00,
2013-01-23 22:12:00,-9.0,-20.0,29.98,NW,316,3.0,8.0,56,0.00,,,0.00,,2013-01-24 03:12:00,
2013-01-23 22:22:00,-8.0,-19.0,29.97,West,279,7.0,15.0,56,0.00,,,0.00,,2013-01-24 03:22:00,
2013-01-23 22:33:00,-9.0,-20.0,29.97,WNW,288,4.0,12.0,56,0.00,,,0.00,,2013-01-24 03:33:00,
2013-01-23 22:43:00,-9.0,-20.0,29.97,WNW,288,4.0,12.0,56,0.00,,,0.00,,2013-01-24 03:43:00,
2013-01-23 22:53:00,-9.0,-20.0,29.97,NW,305,4.0,17.0,56,0.00,,,0.00,,2013-01-24 03:53:00,
2013-01-23 23:02:00,-9.0,-20.0,29.98,NW,316,3.0,6.0,57,0.00,,,0.00,,2013-01-24 04:02:00,
2013-01-23 23:12:00,-9.0,-20.0,29.98,NW,316,3.0,6.0,57,0.00,,,0.00,,2013-01-24 04:12:00,
2013-01-23 23:22:00,-9.0,-20.0,29.98,WNW,302,5.0,9.0,57,0.00,,,0.00,,2013-01-24 04:22:00,
2013-01-23 23:33:00,-9.0,-20.0,29.98,WNW,298,3.0,8.0,57,0.00,,,0.00,,2013-01-24 04:33:00,
2013-01-23 23:42:00,-9.0,-20.0,29.98,WNW,298,3.0,8.0,57,0.00,,,0.00,,2013-01-24 04:42:00,
2013-01-23 23:53:00,-9.0,-20.0,29.98,NNW,345,1.0,8.0,58,0.00,,,0.00,,2013-01-24 04:53:00,